[[{"header":{"parameterUnit":"m.s-1","parameterCategory":1,"la1":30.2991,"la2":30.254,"lo1":-89.0895,"lo2":-89.0444,"dy":0.0017,"dx":0.0017,"nx":28,"ny":28,"refTime":"2024-10-11T21:00:00:Z","depth":0,"parameterNumber":2,"parameterNumberName":"U-component_of_WINDS"},"data":[0,0,0,0,0,0,0,0,0,0,0,0,0,0,0,0,0,0,0,0,0,0,0,0,0,0,0,0,0,0,0,0,0,0,0,0,0,0,0,0,0,0,0,0,0,0,0,0,0,0,0,0,0,0,0,0,0,0,-0.6211,-0.6211,0,-0.6179,-0.6178,-0.6178,-0.6108,-0.6106,-0.6105,-0.6103,-0.6073,-0.6073,-0.6074,0,0,0,0,0,0,0,0,0,0,0,0,0,-0.6214,-0.6215,-0.6211,-0.621,-0.621,-0.6179,-0.6178,-0.6178,-0.6108,-0.6106,-0.6104,-0.6103,-0.6072,-0.6073,-0.6074,0,0,0,0,0,0,0,0,0,0,0,0,0,-0.6201,-0.6215,-0.6211,-0.6171,-0.6167,-0.6179,-0.6178,-0.6178,-0.6108,-0.6106,-0.6104,-0.6102,-0.6072,-0.6073,-0.6074,-0.6122,0,0,-0.6076,-0.6077,0,0,0,0,0,0,0,0,-0.6202,-0.6201,-0.6178,-0.6174,-0.617,-0.6145,-0.6168,-0.6159,-0.6109,-0.6131,-0.6103,-0.6101,-0.6099,-0.6097,-0.6096,-0.612,-0.6119,-0.6076,-0.6077,-0.6077,-0.6077,0,0,0,0,0,0,0,-0.6203,-0.6202,-0.6198,-0.6177,-0.6173,-0.6156,-0.6152,-0.6166,-0.6127,-0.6129,-0.6124,-0.6121,-0.6096,-0.6095,-0.6095,-0.6119,-0.6076,-0.6077,-0.6077,-0.6078,-0.6183,-0.6185,0,0,0,0,0,0,-0.6209,-0.6203,-0.6199,-0.6197,-0.6181,-0.6158,-0.6153,-0.6155,-0.6127,-0.612,-0.6122,-0.6117,-0.6095,-0.6094,-0.6093,-0.6149,-0.6077,-0.6078,-0.6078,-0.618,-0.6183,-0.6186,0,0,0,0,0,0,-0.6209,-0.6209,-0.62,-0.6199,-0.6196,-0.616,-0.6163,-0.6156,-0.6155,-0.6122,-0.6115,-0.6129,-0.6093,-0.6092,-0.6115,-0.6147,-0.6078,-0.6079,-0.6178,-0.6181,-0.6185,-0.626,0,0,0,0,0,0,-0.621,-0.621,-0.6227,-0.62,-0.6197,-0.6223,-0.6165,-0.6157,-0.6156,-0.6149,-0.6126,-0.612,-0.6091,-0.6115,-0.6116,-0.6147,-0.6079,-0.6175,-0.6179,-0.6183,-0.6255,-0.6266,-0.6275,0,0,0,0,0,-0.621,-0.625,-0.6228,-0.6228,-0.6217,-0.6225,-0.6223,-0.6188,-0.6159,-0.6176,-0.6156,-0.6121,-0.6143,-0.6118,-0.6119,-0.615,-0.6173,-0.6178,-0.6183,-0.625,-0.6264,-0.6275,0,0,0,0,0,0,-0.6282,-0.6245,-0.6221,-0.6253,-0.6242,-0.6213,-0.6234,-0.6204,-0.6202,-0.6196,-0.6153,-0.6149,-0.6179,-0.6166,-0.6139,-0.6196,-0.6152,-0.6158,-0.6203,-0.6215,-0.6226,-0.6229,-0.608,0,0,0,0,0,-0.6302,-0.631,-0.6277,-0.6309,-0.6305,-0.627,-0.6272,-0.6247,-0.6234,-0.623,-0.621,-0.6201,-0.6205,-0.621,-0.6212,-0.6252,-0.6247,-0.6274,-0.6285,-0.6293,-0.6299,-0.6321,-0.6334,-0.6203,-0.6203,-0.6203,0,0,-0.6342,-0.6323,-0.6331,-0.6323,-0.6312,-0.6322,-0.6267,-0.628,-0.6288,-0.6232,-0.6253,-0.6239,-0.6225,-0.6258,-0.6271,-0.6248,-0.6334,-0.63,-0.6307,-0.6308,-0.6328,-0.634,-0.6352,-0.6206,-0.6206,-0.6205,0,0,-0.6422,-0.6408,-0.6433,-0.6423,-0.6407,-0.6384,-0.639,-0.6365,-0.6353,-0.6374,-0.6332,-0.6341,-0.635,-0.6342,-0.634,-0.6418,-0.6387,-0.642,-0.6474,-0.6496,-0.6506,-0.6515,-0.6545,-0.6556,-0.6425,-0.6426,-0.6426,0,-0.6475,-0.6488,-0.645,-0.6466,-0.6464,-0.6413,-0.6439,-0.6432,-0.6418,-0.6418,-0.6393,-0.6404,-0.6391,-0.6422,-0.6441,-0.644,-0.6447,-0.6423,-0.6508,-0.6516,-0.6524,-0.6552,-0.6563,-0.643,-0.6429,-0.6429,-0.6429,0,-0.6555,-0.6565,-0.6588,-0.6575,-0.6576,-0.6597,-0.6563,-0.6568,-0.6543,-0.6523,-0.6545,-0.6528,-0.6527,-0.6532,-0.6507,-0.656,-0.6547,-0.6515,-0.6471,-0.6542,-0.6567,-0.6577,-0.6436,-0.6434,-0.6433,-0.6432,0,0,-0.668,-0.6646,-0.6655,-0.6649,-0.6628,-0.6635,-0.6655,-0.6653,-0.666,-0.6652,-0.6668,-0.6677,-0.6648,-0.6645,-0.6619,-0.6639,-0.6704,-0.6605,-0.6604,-0.6625,-0.6763,-0.6788,-0.6801,-0.6682,-0.6684,-0.6686,-0.6765,0,-0.6756,-0.6786,-0.6752,-0.6791,-0.6801,-0.6753,-0.677,-0.6759,-0.6742,-0.6748,-0.6729,-0.6736,-0.6697,-0.6695,-0.6712,-0.6692,-0.6731,-0.6686,-0.6699,-0.67,-0.6705,-0.6814,-0.684,-0.6915,-0.6774,-0.6776,-0.6777,0,-0.6848,-0.6845,-0.6884,-0.6861,-0.6864,-0.688,-0.6877,-0.6883,-0.6871,-0.6857,-0.6854,-0.6823,-0.6842,-0.6798,-0.6824,-0.6794,-0.6797,-0.6789,-0.6791,-0.6792,-0.6744,-0.6819,-0.6938,-0.695,-0.6792,-0.6791,-0.679,0,-0.6937,-0.6942,-0.6967,-0.6963,-0.6937,-0.695,-0.694,-0.6925,-0.6927,-0.6924,-0.6925,-0.6925,-0.6925,-0.6926,-0.6896,-0.6866,-0.6927,-0.688,-0.6917,-0.6918,-0.6933,-0.6933,-0.7056,-0.6933,-0.6933,-0.6932,-0.6932,0,-0.7027,-0.7053,-0.7007,-0.7022,-0.7051,-0.7012,-0.7042,-0.7027,-0.7014,-0.7027,-0.6985,-0.6998,-0.6957,-0.6966,-0.6942,-0.6969,-0.6969,-0.6959,-0.6953,-0.6964,-0.6965,-0.6966,-0.6961,-0.6935,-0.6935,-0.6934,-0.6934,0,-0.7131,-0.7101,-0.7125,-0.7098,-0.7092,-0.7115,-0.7093,-0.7106,-0.7086,-0.7102,-0.7104,-0.7072,-0.7081,-0.7051,-0.7054,-0.7038,-0.7078,-0.7062,-0.7082,-0.7078,-0.7117,-0.7115,-0.7246,-0.7262,-0.7128,-0.713,-0.7131,0,-0.7191,-0.721,-0.7186,-0.7191,-0.7183,-0.7191,-0.7193,-0.7156,-0.716,-0.7148,-0.7163,-0.7168,-0.717,-0.7186,-0.7164,-0.7167,-0.7152,-0.7198,-0.7152,-0.7163,-0.7155,-0.7155,-0.7157,-0.7208,-0.721,-0.7211,-0.7212,0,-0.7301,-0.7285,-0.7288,-0.7287,-0.729,-0.7288,-0.7282,-0.7289,-0.7249,-0.7256,-0.7263,-0.7265,-0.7269,-0.7275,-0.7273,-0.7263,-0.7232,-0.7227,-0.7236,-0.7248,-0.7259,-0.7255,-0.711,-0.7224,-0.7223,-0.7222,-0.7221,-0.7221,-0.7386,-0.7401,-0.7387,-0.7392,-0.7384,-0.7381,-0.7393,-0.7374,-0.7379,-0.7379,-0.7357,-0.737,-0.7358,-0.7353,-0.7347,-0.7357,-0.7336,-0.7348,-0.7352,-0.7356,-0.7363,-0.7256,-0.7356,-0.7356,-0.7355,-0.7355,-0.7355,0,-0.7495,-0.7483,-0.7489,-0.7482,-0.7487,-0.7456,-0.7449,-0.7455,-0.7467,-0.7458,-0.7461,-0.7471,-0.7477,-0.7456,-0.7459,-0.7472,-0.7457,-0.7474,-0.7473,-0.7472,-0.7381,-0.7374,-0.7485,-0.7485,-0.7485,-0.7485,-0.7485,-0.7485,-0.7552,-0.7577,-0.756,-0.7581,-0.7569,-0.7581,-0.758,-0.7577,-0.757,-0.7583,-0.7587,-0.7573,-0.756,-0.7562,-0.7566,-0.756,-0.7564,-0.7586,-0.7575,-0.7491,-0.7478,-0.7466,-0.7459,-0.7586,-0.7587,-0.7665,-0.7665,-0.7666]},{"header":{"parameterUnit":"m.s-1","parameterCategory":1,"la1":30.2991,"la2":30.254,"lo1":-89.0895,"lo2":-89.0444,"dy":0.0017,"dx":0.0017,"nx":28,"ny":28,"refTime":"2024-10-11T21:00:00:Z","depth":0,"parameterNumber":3,"parameterNumberName":"V-component_of_WINDS"},"data":[0,0,0,0,0,0,0,0,0,0,0,0,0,0,0,0,0,0,0,0,0,0,0,0,0,0,0,0,0,0,0,0,0,0,0,0,0,0,0,0,0,0,0,0,0,0,0,0,0,0,0,0,0,0,0,0,0,0,2.0216,2.0216,0,2.0178,2.0177,2.0177,2.0184,2.0185,2.0185,2.0186,2.0141,2.0139,2.0137,0,0,0,0,0,0,0,0,0,0,0,0,0,2.029,2.0288,2.0216,2.0216,2.0215,2.0178,2.0177,2.0177,2.0184,2.0185,2.0185,2.0186,2.0141,2.0139,2.0137,0,0,0,0,0,0,0,0,0,0,0,0,0,2.0255,2.0288,2.0216,2.0214,2.0214,2.0178,2.0177,2.0177,2.0184,2.0185,2.0186,2.0187,2.0142,2.0139,2.0137,2.0099,0,0,2.0128,2.0127,0,0,0,0,0,0,0,0,2.0257,2.0252,2.0215,2.0214,2.0214,2.0187,2.0187,2.015,2.0183,2.0195,2.0186,2.0187,2.0155,2.0151,2.0141,2.0097,2.0095,2.0128,2.0126,2.0125,2.0124,0,0,0,0,0,0,0,2.0259,2.0254,2.0201,2.0214,2.0214,2.0213,2.021,2.018,2.0169,2.0194,2.0194,2.019,2.0155,2.0144,2.014,2.0094,2.0128,2.0126,2.0124,2.0123,2.0015,2.0014,0,0,0,0,0,0,2.0263,2.0256,2.0202,2.02,2.0238,2.0211,2.0207,2.0194,2.017,2.0167,2.0189,2.0191,2.0148,2.0144,2.0139,2.0092,2.0125,2.0122,2.0121,2.0016,2.0015,2.0013,0,0,0,0,0,0,2.0265,2.0258,2.0203,2.0228,2.0221,2.0209,2.0194,2.0193,2.0182,2.0166,2.0164,2.0181,2.0149,2.0143,2.0109,2.009,2.0121,2.0119,2.0017,2.0016,2.0014,1.9998,0,0,0,0,0,0,2.0267,2.0259,2.0245,2.0228,2.022,2.0176,2.0193,2.0191,2.0178,2.018,2.0158,2.0155,2.0149,2.0113,2.0106,2.0087,2.0117,2.0019,2.0017,2.0014,2.0,1.9996,1.9992,0,0,0,0,0,2.0269,2.0241,2.0245,2.0238,2.0203,2.0175,2.017,2.0166,2.0177,2.0162,2.0152,2.0155,2.0094,2.0109,2.0102,2.0082,2.002,2.0017,2.0015,2.0002,1.9997,1.9993,0,0,0,0,0,0,2.0255,2.0239,2.0242,2.0208,2.0193,2.0176,2.0158,2.0161,2.014,2.0142,2.0136,2.0131,2.0096,2.0086,2.0103,2.0043,2.0058,2.0054,2.0051,2.0046,2.0042,2.0045,2.0114,0,0,0,0,0,2.0249,2.0229,2.0215,2.0186,2.0178,2.0169,2.0157,2.0155,2.0138,2.0131,2.0118,2.01,2.0077,2.0061,2.0039,1.9999,1.9994,1.9982,1.9978,1.9975,1.997,1.9948,1.9942,2.0004,2.0004,2.0004,0,0,2.0233,2.0222,2.021,2.0183,2.0171,2.0148,2.0164,2.014,2.0122,2.0127,2.0094,2.0084,2.0063,2.0027,2.001,2.0016,1.9952,1.9971,1.9969,1.9966,1.9944,1.9938,1.9933,2.0003,2.0003,2.0003,0,0,2.0195,2.0185,2.016,2.0148,2.013,2.0125,2.0118,2.0101,2.0095,2.0063,2.0066,2.0044,2.0004,1.9989,1.9976,1.9933,1.9934,1.9926,1.9904,1.9882,1.9877,1.9873,1.9856,1.985,1.9922,1.9922,1.9922,0,2.0178,2.0146,2.0146,2.0121,2.0109,2.0114,2.0087,2.0075,2.005,2.004,2.005,2.0,1.9986,1.9945,1.9935,1.9924,1.9916,1.9927,1.9879,1.9874,1.987,1.9853,1.9847,1.9921,1.9921,1.9921,1.9921,0,2.0126,2.0104,2.0085,2.0063,2.0048,2.0023,2.0016,2.0001,2.0001,1.9994,1.9961,1.9945,1.9919,1.991,1.9908,1.9868,1.9873,1.988,1.9895,1.9863,1.9847,1.9841,1.9919,1.9919,1.992,1.992,0,0,2.0075,2.0055,2.0047,2.0037,2.0019,2.0,1.9975,1.9952,1.9938,1.9921,1.9898,1.9864,1.9871,1.9857,1.9854,1.9835,1.98,1.9844,1.9844,1.9835,1.9752,1.9746,1.9739,1.9802,1.98,1.9799,1.9754,0,2.0034,1.9991,1.9989,1.9949,1.9927,1.9933,1.991,1.9895,1.9888,1.9867,1.9859,1.9835,1.9846,1.9837,1.9819,1.9808,1.9782,1.9811,1.9778,1.9777,1.9781,1.9731,1.9724,1.9681,1.9748,1.9747,1.9746,0,1.9979,1.9963,1.992,1.9905,1.9896,1.9875,1.9854,1.9835,1.9818,1.9814,1.9798,1.9798,1.977,1.9787,1.9747,1.9767,1.9753,1.9745,1.9744,1.9739,1.9758,1.9723,1.9668,1.9661,1.9737,1.9737,1.9738,0,1.9945,1.9912,1.9882,1.9873,1.9855,1.984,1.9831,1.9816,1.9802,1.9782,1.9773,1.975,1.9736,1.9718,1.9711,1.9725,1.967,1.9688,1.9664,1.9664,1.9651,1.9652,1.9591,1.9645,1.9645,1.9646,1.9646,0,1.9898,1.9872,1.9867,1.9848,1.9818,1.9817,1.9786,1.9778,1.9764,1.9743,1.9746,1.9725,1.9718,1.9696,1.9691,1.9657,1.9652,1.9646,1.9644,1.9645,1.9645,1.9634,1.9636,1.9644,1.9644,1.9645,1.9645,0,1.9854,1.985,1.9818,1.9804,1.9799,1.9778,1.9764,1.9745,1.974,1.9712,1.9706,1.9695,1.9669,1.9661,1.9629,1.9626,1.9586,1.9588,1.9593,1.9592,1.9569,1.957,1.9498,1.9487,1.955,1.9549,1.9549,0,1.9824,1.9804,1.9788,1.9775,1.9766,1.9744,1.9731,1.9728,1.9713,1.9692,1.9676,1.9651,1.963,1.9588,1.9576,1.9552,1.9552,1.9528,1.9548,1.9549,1.9549,1.955,1.9547,1.9524,1.9523,1.9523,1.9522,0,1.9769,1.9768,1.975,1.973,1.9714,1.9698,1.9682,1.9671,1.9666,1.9648,1.9623,1.9608,1.9576,1.955,1.9526,1.9514,1.9516,1.9516,1.9509,1.9508,1.9511,1.9508,1.9581,1.9517,1.9518,1.9518,1.9519,1.9519,1.973,1.9712,1.9698,1.9677,1.9665,1.9651,1.9633,1.9625,1.9604,1.958,1.9579,1.9551,1.9533,1.9501,1.9488,1.9465,1.9472,1.9462,1.9459,1.9456,1.9454,1.9517,1.9461,1.9461,1.9461,1.9461,1.9461,0,1.9674,1.9666,1.9647,1.9626,1.9608,1.9615,1.9598,1.9582,1.9558,1.9543,1.9524,1.9494,1.9469,1.9456,1.9431,1.9414,1.9415,1.9408,1.9408,1.9405,1.945,1.9458,1.9408,1.9408,1.9408,1.9408,1.9408,1.9408,1.9643,1.9614,1.9611,1.9575,1.9566,1.954,1.953,1.9516,1.9503,1.9471,1.9451,1.9443,1.9428,1.9402,1.9379,1.9376,1.9365,1.9357,1.9354,1.9396,1.9402,1.9407,1.9414,1.9356,1.9356,1.9311,1.931,1.931]}]]